GW4570 Weather Reports


time (UTC)temp
C
wind
direction
speed
KPH
gust
KPH
rain 1hr
cm
rain 24hr
cm
rain mn
cm
humidity
%
barometer
mb
20260510192922 22 209 0.0 1.6 0.00 0.00 0.00 45 1014.6
20260510192423 22 315 0.0 1.6 0.00 0.00 0.00 47 1014.6
20260510191919 23 3 0.0 0.0 0.00 0.00 0.00 46 1014.6
20260510191415 23 297 1.6 3.2 0.00 0.00 0.00 45 1014.5
20260510190912 23 301 3.2 3.2 0.00 0.00 0.00 43 1014.5
20260510190410 23 58 0.0 0.0 0.00 0.00 0.00 46 1014.3
20260510185906 23 197 0.0 3.2 0.00 0.00 0.00 46 1014.4
20260510185404 25 358 3.2 4.8 0.00 0.00 0.00 44 1014.2
20260510184901 25 18 1.6 1.6 0.00 0.00 0.00 45 1014.3
20260510184358 25 82 3.2 3.2 0.00 0.00 0.00 42 1014.2
20260510183857 26 134 3.2 4.8 0.00 0.00 0.00 39 1014.2
20260510183354 25 2 1.6 1.6 0.00 0.00 0.00 46 1014.5
20260510182849 25 350 1.6 3.2 0.00 0.00 0.00 45 1014.4
20260510182346 25 281 3.2 4.8 0.00 0.00 0.00 49 1014.5
20260510181842 24 326 1.6 1.6 0.00 0.00 0.00 43 1014.8
20260510181339 25 195 1.6 3.2 0.00 0.00 0.00 45 1014.8
20260510180835 23 336 0.0 3.2 0.00 0.00 0.00 49 1014.7
20260510180332 25 301 1.6 3.2 0.00 0.00 0.00 44 1014.6
20260510175829 25 294 4.8 4.8 0.00 0.00 0.00 50 1014.9
20260510175325 23 287 3.2 4.8 0.00 0.00 0.00 51 1014.8
20260510174822 22 318 0.0 0.0 0.00 0.00 0.00 50 1014.9
20260510174319 22 318 0.0 0.0 0.00 0.00 0.00 50 1015.0
20260510173815 23 303 4.8 6.4 0.00 0.00 0.00 51 1015.1
20260510173311 23 259 4.8 4.8 0.00 0.00 0.00 51 1015.3
20260510172807 23 342 6.4 6.4 0.00 0.00 0.00 51 1015.2
20260510172306 22 126 3.2 4.8 0.00 0.00 0.00 55 1015.2
20260510171800 22 289 3.2 4.8 0.00 0.00 0.00 51 1015.2
20260510171257 23 268 4.8 9.7 0.00 0.00 0.00 50 1015.6
20260510170754 23 268 4.8 9.7 0.00 0.00 0.00 50 1015.2
20260510170250 24 129 3.2 4.8 0.00 0.00 0.00 50 1015.2
20260510165746 22 290 4.8 4.8 0.00 0.00 0.00 52 1015.5
20260510165242 -17 0.0 0.0 0.00 0.00 0.00 1015.3
20260510164740 -17 0.0 0.0 0.00 0.00 0.00 1015.0
20260510164237 -17 0.0 0.0 0.00 0.00 0.00 1015.2
20260510163732 -17 0.0 0.0 0.00 0.00 0.00 1015.2
20260510163228 22 301 3.2 4.8 0.00 0.00 0.00 50 1015.3
20260510162727 22 301 3.2 4.8 0.00 0.00 0.00 50 1015.5
20260510162225 23 118 4.8 6.4 0.00 0.00 0.00 49 1015.7
20260510161720 -17 0.0 0.0 0.00 0.00 0.00 1015.6
20260510161217 -17 0.0 0.0 0.00 0.00 0.00 1015.5
20260510160714 -17 0.0 0.0 0.00 0.00 0.00 1015.3
20260510160209 -17 0.0 0.0 0.00 0.00 0.00 1015.3
20260510155705 -17 0.0 0.0 0.00 0.00 0.00 1015.3
20260510155201 23 12 1.6 3.2 0.00 0.00 0.00 58 1015.6
20260510154657 23 12 1.6 3.2 0.00 0.00 0.00 58 1015.6
20260510154153 -17 0.0 0.0 0.00 0.00 0.00 1015.7
20260510153648 -17 0.0 0.0 0.00 0.00 0.00 1015.8
20260510153145 -17 0.0 0.0 0.00 0.00 0.00 1015.6
20260510152641 -17 0.0 0.0 0.00 0.00 0.00 1015.6
20260510152137 22 272 3.2 4.8 0.00 0.00 0.00 56 1015.7
20260510151634 22 272 3.2 4.8 0.00 0.00 0.00 56 1015.8
20260510151134 -17 0.0 0.0 0.00 0.00 0.00 1015.9
20260510150634 -17 0.0 0.0 0.00 0.00 0.00 1015.9
20260510150129 -17 0.0 0.0 0.00 0.00 0.00 1015.8
20260510145626 -17 0.0 0.0 0.00 0.00 0.00 1015.5
20260510145123 -17 0.0 0.0 0.00 0.00 0.00 1015.8
20260510144618 -17 0.0 0.0 0.00 0.00 0.00 1015.7
20260510144115 20 164 4.8 6.4 0.00 0.00 0.00 68 1015.7
20260510143610 20 164 4.8 6.4 0.00 0.00 0.00 68 1015.6
20260510143107 20 169 4.8 4.8 0.00 0.00 0.00 67 1015.6
20260510142604 18 254 6.4 6.4 0.00 0.00 0.00 74 1015.7
20260510142100 18 152 4.8 6.4 0.00 0.00 0.00 73 1015.7
20260510141557 18 155 3.2 4.8 0.00 0.00 0.00 74 1015.9
20260510141055 -17 0.0 0.0 0.00 0.00 0.00 1015.7
20260510140551 -17 0.0 0.0 0.00 0.00 0.00 1015.8
20260510140050 -17 0.0 0.0 0.00 0.00 0.00 1015.9
20260510135546 -17 0.0 0.0 0.00 0.00 0.00 1015.7
20260510135043 -17 0.0 0.0 0.00 0.00 0.00 1015.9
20260510134540 -17 0.0 0.0 0.00 0.00 0.00 1015.9
20260510134037 -17 0.0 0.0 0.00 0.00 0.00 1016.1
20260510133532 -17 0.0 0.0 0.00 0.00 0.00 1015.8
20260510133029 -17 0.0 0.0 0.00 0.00 0.00 1015.9
20260510132526 -17 0.0 0.0 0.00 0.00 0.00 1016.1
20260510132023 -17 0.0 0.0 0.00 0.00 0.00 1016.1
20260510131520 -17 0.0 0.0 0.00 0.00 0.00 1016.0
20260510131017 -17 0.0 0.0 0.00 0.00 0.00 1016.1
20260510130513 -17 0.0 0.0 0.00 0.00 0.00 1016.0
20260510130011 -17 0.0 0.0 0.00 0.00 0.00 1016.1
20260510125507 -17 0.0 0.0 0.00 0.00 0.00 1015.9
20260510125004 -17 0.0 0.0 0.00 0.00 0.00 1015.9
20260510124500 -17 0.0 0.0 0.00 0.00 0.00 1016.1
20260510123957 -17 0.0 0.0 0.00 0.00 0.00 1016.0
20260510123452 -17 0.0 0.0 0.00 0.00 0.00 1015.9
20260510122949 -17 0.0 0.0 0.00 0.00 0.00 1015.8
20260510122444 -17 0.0 0.0 0.00 0.00 0.00 1015.7
20260510121941 -17 0.0 0.0 0.00 0.00 0.00 1015.5
20260510121438 -17 0.0 0.0 0.00 0.00 0.00 1015.5
20260510120936 -17 0.0 0.0 0.00 0.00 0.00 1015.6
20260510120432 -17 0.0 0.0 0.00 0.00 0.00 1015.2
20260510115928 -17 0.0 0.0 0.00 0.00 0.00 1015.5
20260510115426 -17 0.0 0.0 0.00 0.00 0.00 1015.5
20260510114921 -17 0.0 0.0 0.00 0.00 0.00 1015.7
20260510114419 -17 0.0 0.0 0.00 0.00 0.00 1015.6
20260510113914 -17 0.0 0.0 0.00 0.00 0.00 1015.7
20260510113410 -17 0.0 0.0 0.00 0.00 0.00 1015.7
20260510112908 -17 0.0 0.0 0.00 0.00 0.00 1015.7
20260510112405 -17 0.0 0.0 0.00 0.00 0.00 1015.3
20260510111901 -17 0.0 0.0 0.00 0.00 0.00 1015.7
20260510111357 -17 0.0 0.0 0.00 0.00 0.00 1015.6
20260510110852 -17 0.0 0.0 0.00 0.00 0.00 1015.3
20260510110343 -17 0.0 0.0 0.00 0.00 0.00 1015.3
20260510105840 -17 0.0 0.0 0.00 0.00 0.00 1015.2
20260510105339 -17 0.0 0.0 0.00 0.00 0.00 1015.0
20260510104835 -17 0.0 0.0 0.00 0.00 0.00 1014.8
20260510104332 -17 0.0 0.0 0.00 0.00 0.00 1015.0
20260510103828 -17 0.0 0.0 0.00 0.00 0.00 1015.0
20260510103326 -17 0.0 0.0 0.00 0.00 0.00 1014.8
20260510102821 -17 0.0 0.0 0.00 0.00 0.00 1014.5
20260510102317 -17 0.0 0.0 0.00 0.00 0.00 1014.5
20260510101815 -17 0.0 0.0 0.00 0.00 0.00 1014.8
20260510101313 -17 0.0 0.0 0.00 0.00 0.00 1014.3
20260510100808 -17 0.0 0.0 0.00 0.00 0.00 1014.6
20260510100306 -17 0.0 0.0 0.00 0.00 0.00 1014.5
20260510095801 -17 0.0 0.0 0.00 0.00 0.00 1014.5
20260510095257 -17 0.0 0.0 0.00 0.00 0.00 1014.6
20260510094756 -17 0.0 0.0 0.00 0.00 0.00 1014.3
20260510094251 -17 0.0 0.0 0.00 0.00 0.00 1014.2
20260510093747 -17 0.0 0.0 0.00 0.00 0.00 1014.1
20260510093245 -17 0.0 0.0 0.00 0.00 0.00 1014.3
20260510092741 -17 0.0 0.0 0.00 0.00 0.00 1014.1
20260510092237 -17 0.0 0.0 0.00 0.00 0.00 1014.2
20260510091732 -17 0.0 0.0 0.00 0.00 0.00 1013.9
20260510091230 -17 0.0 0.0 0.00 0.00 0.00 1013.9
20260510090726 -17 0.0 0.0 0.00 0.00 0.00 1014.0
20260510090224 -17 0.0 0.0 0.00 0.00 0.00 1013.6
20260510085718 -17 0.0 0.0 0.00 0.00 0.00 1014.0
20260510085213 -17 0.0 0.0 0.00 0.00 0.00 1013.9
20260510084709 -17 0.0 0.0 0.00 0.00 0.00 1013.5
20260510084207 -17 0.0 0.0 0.00 0.00 0.00 1013.4
20260510083703 -17 0.0 0.0 0.00 0.00 0.00 1013.3
20260510083201 -17 0.0 0.0 0.00 0.00 0.00 1013.1
20260510082656 -17 0.0 0.0 0.00 0.00 0.00 1013.2
20260510082152 -17 0.0 0.0 0.00 0.00 0.00 1013.2
20260510081642 -17 0.0 0.0 0.00 0.00 0.00 1013.2
20260510081138 -17 0.0 0.0 0.00 0.00 0.00 1013.3
20260510080637 -17 0.0 0.0 0.00 0.00 0.00 1013.2
20260510080134 -17 0.0 0.0 0.00 0.00 0.00 1013.5
20260510075631 -17 0.0 0.0 0.00 0.00 0.00 1013.3
20260510075128 -17 0.0 0.0 0.00 0.00 0.00 1013.2
20260510074625 -17 0.0 0.0 0.00 0.00 0.00 1013.5
20260510074120 -17 0.0 0.0 0.00 0.00 0.00 1013.4
20260510073617 -17 0.0 0.0 0.00 0.00 0.00 1013.2
20260510073114 -17 0.0 0.0 0.00 0.00 0.00 1013.1
20260510072611 -17 0.0 0.0 0.00 0.00 0.00 1013.3
20260510072107 -17 0.0 0.0 0.00 0.00 0.00 1013.4
20260510071603 -17 0.0 0.0 0.00 0.00 0.00 1013.3
20260510071100 5 283 0.0 0.0 0.00 0.00 0.00 99 1013.3
20260510070557 5 283 0.0 0.0 0.00 0.00 0.00 99 1013.2
20260510070054 -17 0.0 0.0 0.00 0.00 0.00 1013.5
20260510065550 -17 0.0 0.0 0.00 0.00 0.00 1013.0
20260510065046 -17 0.0 0.0 0.00 0.00 0.00 1012.9
20260510064543 -17 0.0 0.0 0.00 0.00 0.00 1012.9
20260510064040 -17 0.0 0.0 0.00 0.00 0.00 1012.9
20260510063536 -17 0.0 0.0 0.00 0.00 0.00 1012.9
20260510063034 -17 0.0 0.0 0.00 0.00 0.00 1012.8
20260510062530 -17 0.0 0.0 0.00 0.00 0.00 1013.2
20260510062025 -17 0.0 0.0 0.00 0.00 0.00 1012.9
20260510061522 -17 0.0 0.0 0.00 0.00 0.00 1013.2
20260510061018 -17 0.0 0.0 0.00 0.00 0.00 1012.8
20260510060515 -17 0.0 0.0 0.00 0.00 0.00 1013.0
20260510060011 -17 0.0 0.0 0.00 0.00 0.00 1013.1
20260510055507 -17 0.0 0.0 0.00 0.00 0.00 1013.1
20260510055005 -17 0.0 0.0 0.00 0.00 0.00 1013.1
20260510054500 -17 0.0 0.0 0.00 0.00 0.00 1013.0
20260510053956 -17 0.0 0.0 0.00 0.00 0.00 1013.0
20260510053451 -17 0.0 0.0 0.00 0.00 0.00 1013.1
20260510052947 6 307 0.0 0.0 0.00 0.00 0.00 97 1013.0
20260510052443 6 307 0.0 0.0 0.00 0.00 0.00 97 1013.2
20260510051940 6 307 0.0 0.0 0.00 0.00 0.00 96 1012.9
20260510051436 6 307 0.0 0.0 0.00 0.00 0.00 96 1013.1
20260510050932 6 307 0.0 0.0 0.00 0.00 0.00 96 1013.1
20260510050429 6 306 0.0 1.6 0.00 0.00 0.00 95 1013.1
20260510045927 6 307 0.0 3.2 0.00 0.00 0.00 95 1013.2
20260510045424 6 306 1.6 1.6 0.00 0.00 0.00 94 1012.9
20260510044920 7 306 0.0 0.0 0.00 0.00 0.00 93 1013.3
20260510044417 8 307 0.0 0.0 0.00 0.00 0.00 93 1013.3
20260510043914 8 307 0.0 0.0 0.00 0.00 0.00 95 1013.1
20260510043410 7 307 0.0 0.0 0.00 0.00 0.00 95 1013.1
20260510042908 7 306 0.0 0.0 0.00 0.00 0.00 94 1013.0
20260510042404 7 306 3.2 3.2 0.00 0.00 0.00 95 1013.0
20260510041900 7 306 3.2 3.2 0.00 0.00 0.00 95 1012.9
20260510041357 8 306 1.6 1.6 0.00 0.00 0.00 93 1012.8
20260510040855 8 306 1.6 1.6 0.00 0.00 0.00 93 1013.0
20260510040352 7 306 1.6 1.6 0.00 0.00 0.00 93 1013.0
20260510035847 7 306 0.0 0.0 0.00 0.00 0.00 93 1013.0
20260510035343 7 306 1.6 1.6 0.00 0.00 0.00 92 1013.1
20260510034839 8 306 1.6 3.2 0.00 0.00 0.00 92 1013.1
20260510034337 8 287 1.6 3.2 0.00 0.00 0.00 91 1012.9
20260510033833 8 284 0.0 0.0 0.00 0.00 0.00 92 1013.1
20260510033330 8 284 0.0 0.0 0.00 0.00 0.00 91 1012.9
20260510032826 8 284 0.0 0.0 0.00 0.00 0.00 91 1013.0
20260510032323 -17 0.0 0.0 0.00 0.00 0.00 1012.8
20260510031819 -17 0.0 0.0 0.00 0.00 0.00 1012.8
20260510031315 -17 0.0 0.0 0.00 0.00 0.00 1013.0
20260510030815 -17 0.0 0.0 0.00 0.00 0.00 1013.0
20260510030311 8 278 0.0 0.0 0.00 0.00 0.00 91 1013.3
20260510025809 8 278 0.0 0.0 0.00 0.00 0.00 91 1013.1
20260510025306 8 278 0.0 0.0 0.00 0.00 0.00 91 1013.3
20260510024802 -17 0.0 0.0 0.00 0.00 0.00 1012.9
20260510024300 -17 0.0 0.0 0.00 0.00 0.00 1012.9
20260510023756 -17 0.0 0.0 0.00 0.00 0.00 1012.6
20260510023253 -17 0.0 0.0 0.00 0.00 0.00 1012.8
20260510022749 -17 0.0 0.0 0.00 0.00 0.00 1012.6
20260510022244 8 278 0.0 0.0 0.00 0.00 0.00 89 1012.6
20260510021743 8 278 0.0 0.0 0.00 0.00 0.00 89 1012.3
20260510021242 9 278 0.0 0.0 0.00 0.00 0.00 89 1012.4
20260510020737 9 278 0.0 0.0 0.00 0.00 0.00 88 1012.4
20260510020236 9 278 0.0 0.0 0.00 0.00 0.00 87 1012.2
20260510015733 9 278 0.0 0.0 0.00 0.00 0.00 86 1012.3
20260510015229 10 278 0.0 0.0 0.00 0.00 0.00 86 1012.2
20260510014724 10 278 0.0 0.0 0.00 0.00 0.00 85 1011.8
20260510014222 10 278 0.0 0.0 0.00 0.00 0.00 84 1011.8
20260510013717 10 278 0.0 0.0 0.00 0.00 0.00 83 1011.5
20260510013214 10 278 0.0 0.0 0.00 0.00 0.00 82 1011.6
20260510012713 11 278 0.0 0.0 0.00 0.00 0.00 81 1011.2
20260510012209 -17 0.0 0.0 0.00 0.00 0.00 1011.3
20260510011704 12 278 0.0 0.0 0.00 0.00 0.00 76 1011.5
20260510011200 12 278 0.0 0.0 0.00 0.00 0.00 76 1011.5
20260510010656 -17 0.0 0.0 0.00 0.00 0.00 1011.1
20260510010153 13 278 0.0 0.0 0.00 0.00 0.00 72 1011.3
20260510005649 13 278 0.0 0.0 0.00 0.00 0.00 72 1011.5
20260510005146 13 278 0.0 0.0 0.00 0.00 0.00 70 1011.2
20260510004645 13 278 0.0 0.0 0.00 0.00 0.00 70 1011.2
20260510004142 -17 0.0 0.0 0.00 0.00 0.00 1010.9
20260510003639 -17 0.0 0.0 0.00 0.00 0.00 1011.0
20260510003135 -17 0.0 0.0 0.00 0.00 0.00 1011.1
20260510002635 -17 0.0 0.0 0.00 0.00 0.00 1011.0
20260510002132 -17 0.0 0.0 0.00 0.00 0.00 1011.1
20260510001628 -17 0.0 0.0 0.00 0.00 0.00 1010.8
20260510001128 -17 0.0 0.0 0.00 0.00 0.00 1010.8
20260510000627 -17 0.0 0.0 0.00 0.00 0.00 1010.5
20260510000125 -17 0.0 0.0 0.00 0.00 0.00 1010.5
20260509235621 -17 0.0 0.0 0.00 0.00 0.00 1010.3
20260509235118 -17 0.0 0.0 0.00 0.00 0.00 1010.2
20260509234614 -17 0.0 0.0 0.00 0.00 0.00 1010.3
20260509234112 -17 0.0 0.0 0.00 0.00 0.00 1010.2
20260509233609 -17 0.0 0.0 0.00 0.00 0.00 1010.2
20260509233106 -17 0.0 0.0 0.00 0.00 0.00 1010.3
20260509232603 -17 0.0 0.0 0.00 0.00 0.00 1009.8
20260509232100 -17 0.0 0.0 0.00 0.00 0.00 1009.9
20260509231556 -17 0.0 0.0 0.00 0.00 0.00 1009.8
20260509231054 -17 0.0 0.0 0.00 0.00 0.00 1010.0
20260509230550 -17 0.0 0.0 0.00 0.00 0.00 1010.0
20260509230048 -17 0.0 0.0 0.00 0.00 0.00 1010.0
20260509225543 -17 0.0 0.0 0.00 0.00 0.00 1010.0
20260509225039 -17 0.0 0.0 0.00 0.00 0.00 1010.2
20260509224535 -17 0.0 0.0 0.00 0.00 0.00 1010.0
20260509224032 -17 0.0 0.0 0.00 0.00 0.00 1010.2
20260509223529 -17 0.0 0.0 0.00 0.00 0.00 1010.6
20260509223027 -17 0.0 0.0 0.00 0.00 0.00 1010.6
20260509222522 -17 0.0 0.0 0.00 0.00 0.00 1010.3
20260509222018 -17 0.0 0.0 0.00 0.00 0.00 1010.2
20260509221514 -17 0.0 0.0 0.00 0.00 0.00 1010.3
20260509221010 -17 0.0 0.0 0.00 0.00 0.00 1010.2
20260509220506 -17 0.0 0.0 0.00 0.00 0.00 1010.2
20260509220002 -17 0.0 0.0 0.00 0.00 0.00 1010.2
20260509215458 -17 0.0 0.0 0.00 0.00 0.00 1010.0
20260509214955 -17 0.0 0.0 0.00 0.00 0.00 1010.2
20260509214453 -17 0.0 0.0 0.00 0.00 0.00 1010.0
20260509213949 -17 0.0 0.0 0.00 0.00 0.00 1009.9
20260509213445 -17 0.0 0.0 0.00 0.00 0.00 1010.0
20260509212943 -17 0.0 0.0 0.00 0.00 0.00 1009.8
20260509212440 -17 0.0 0.0 0.00 0.00 0.00 1010.0
20260509211936 20 15 1.6 3.2 0.00 0.00 0.00 50 1009.8
20260509211431 20 15 1.6 3.2 0.00 0.00 0.00 50 1009.8
20260509210928 20 348 0.0 0.0 0.00 0.00 0.00 52 1009.8
20260509210426 20 85 1.6 1.6 0.00 0.00 0.00 50 1009.7
20260509205921 20 334 3.2 3.2 0.00 0.00 0.00 50 1009.8
20260509205420 20 325 0.0 1.6 0.00 0.00 0.00 50 1009.7
20260509204917 20 64 0.0 1.6 0.00 0.00 0.00 51 1009.8
20260509204413 20 313 0.0 1.6 0.00 0.00 0.00 50 1009.5
20260509203910 20 350 3.2 3.2 0.00 0.00 0.00 48 1009.3
20260509203406 21 16 3.2 3.2 0.00 0.00 0.00 47 1009.2
20260509202904 21 16 3.2 3.2 0.00 0.00 0.00 47 1009.3
20260509202359 20 296 3.2 3.2 0.00 0.00 0.00 47 1009.4
20260509201854 20 61 0.0 0.0 0.00 0.00 0.00 49 1009.4
20260509201350 20 276 0.0 0.0 0.00 0.00 0.00 51 1009.3
20260509200847 20 327 3.2 3.2 0.00 0.00 0.00 49 1009.4
20260509200342 20 123 0.0 1.6 0.00 0.00 0.00 47 1009.1
20260509195840 20 351 1.6 1.6 0.00 0.00 0.00 51 1009.2
20260509195339 20 276 0.0 1.6 0.00 0.00 0.00 51 1009.2
20260509194839 21 128 0.0 1.6 0.00 0.00 0.00 48 1009.2
20260509194335 21 182 4.8 9.7 0.00 0.00 0.00 49 1009.3
20260509193833 21 158 3.2 3.2 0.00 0.00 0.00 49 1009.3
20260509193332 21 90 0.0 1.6 0.00 0.00 0.00 48 1009.1